"Timestamp","TZ","WindDir_Mean (deg)","WindSpd_Mean (km/h)","WindSpd_Min (km/h)","WindSpd_Max (km/h)","Temp_Mean (deg)","RH_Mean (%)","MSLP_Mean (hPa)","Rain_Acc (mm)","Rain_Intensity (mm/h)","Hail_Acc (hits/cm2)","Hail_Intensity (hits/cm2hr)","Solar_Mean (W/m2)"
2021/01/08 00:00:00.006,n,264,7.2,6.48,8.64,20.3,80.8,1014.92,0,0,0,0,0.035706
2021/01/08 00:01:00.000,n,261,7.56,6.84,9,20.3,80.9,1014.82,0,0,0,0,0.037422
2021/01/08 00:02:00.001,n,274,5.04,4.68,5.4,20.3,80.8,1014.82,0,0,0,0,0.042648
2021/01/08 00:03:00.000,n,251,4.32,3.6,4.68,20.3,80.9,1014.82,0,0,0,0,0.040932
2021/01/08 00:04:00.000,n,275,2.52,2.16,2.88,20.4,81.4,1014.82,0,0,0,0,0.044403
2021/01/08 00:05:00.008,n,269,6.12,5.76,6.84,20.4,81.6,1014.82,0,0,0,0,0.040932
2021/01/08 00:06:00.005,n,246,4.68,3.96,5.04,20.4,81.2,1014.82,0,0,0,0,0.041809
2021/01/08 00:07:00.002,n,256,6.48,5.4,7.56,20.5,81,1014.92,0,0,0,0,0.039177
2021/01/08 00:08:00.000,n,260,4.32,2.52,5.04,20.5,80.8,1014.92,0,0,0,0,0.042648
2021/01/08 00:09:00.013,n,282,7.92,6.84,9,20.4,80.5,1014.92,0,0,0,0,0.041809
2021/01/08 00:10:00.000,n,271,5.76,5.04,6.48,20.4,80.6,1014.92,0,0,0,0,0.037422
2021/01/08 00:11:00.000,n,278,5.76,5.04,6.48,20.4,80.7,1015.02,0,0,0,0,0.041809
2021/01/08 00:12:00.005,n,274,6.12,5.4,6.48,20.4,80.7,1015.02,0,0,0,0,0.043526
2021/01/08 00:13:00.002,n,257,5.76,3.96,7.2,20.4,80.7,1015.02,0,0,0,0,0.040932
2021/01/08 00:14:00.000,n,257,5.4,4.68,5.76,20.4,80.8,1014.92,0,0,0,0,0.037422
2021/01/08 00:15:00.000,n,292,7.92,6.48,10.08,20.4,80.9,1014.92,0,0,0,0,0.035706
2021/01/08 00:16:00.009,n,239,6.48,5.76,7.2,20.5,80.8,1014.92,0,0,0,0,0.039177
2021/01/08 00:17:00.006,n,269,6.48,4.32,8.28,20.5,81.7,1014.92,0,0,0,0,0.043526
2021/01/08 00:18:00.003,n,251,6.12,5.76,6.12,20.6,81.2,1014.92,0,0,0,0,0.040932
2021/01/08 00:19:00.001,n,247,7.2,5.76,7.92,20.6,80.8,1014.92,0,0,0,0,0.040932
2021/01/08 00:20:00.000,n,254,8.64,8.28,9.36,20.5,80.5,1014.92,0,0,0,0,0.043526
2021/01/08 00:21:00.000,n,302,1.8,0.72,2.88,20.5,80.5,1014.92,0,0,0,0,0.040016
2021/01/08 00:22:00.001,n,266,5.04,4.68,5.4,20.5,80.6,1014.92,0,0,0,0,0.041809
2021/01/08 00:23:00.000,n,252,6.12,5.76,6.84,20.5,80.6,1014.92,0,0,0,0,0.040932
2021/01/08 00:24:00.000,n,273,5.4,3.96,6.48,20.5,80.6,1014.92,0,0,0,0,0.04528
2021/01/08 00:25:00.009,n,298,6.12,5.04,6.84,20.5,81,1014.92,0,0,0,0,0.041809
2021/01/08 00:26:00.006,n,289,5.04,4.32,5.4,20.6,80.7,1014.92,0,0,0,0,0.04528
2021/01/08 00:27:00.003,n,261,6.84,5.04,9,20.6,80.4,1014.92,0,0,0,0,0.04528
2021/01/08 00:28:00.001,n,215,3.96,3.6,4.68,20.6,80.6,1014.92,0,0,0,0,0.039177
2021/01/08 00:29:00.000,n,228,1.44,1.08,2.16,20.6,80.7,1014.92,0,0,0,0,0.042648
2021/01/08 00:30:00.000,n,194,2.16,1.08,2.52,20.6,80.8,1014.92,0,0,0,0,0.037422
2021/01/08 00:31:00.000,n,266,4.68,1.8,5.76,20.7,81,1014.92,0,0,0,0,0.044403
2021/01/08 00:32:00.005,n,262,6.48,6.12,7.2,20.7,80.4,1014.92,0,0,0,0,0.0383
2021/01/08 00:33:00.002,n,255,6.48,5.76,7.2,20.7,80.1,1014.92,0,0,0,0,0.042648
2021/01/08 00:34:00.000,n,268,6.84,6.12,7.56,20.7,80,1014.92,0,0,0,0,0.040932
2021/01/08 00:35:00.012,n,270,8.64,7.56,9.36,20.6,80,1014.92,0,0,0,0,0.046997
2021/01/08 00:36:00.009,n,235,3.96,3.6,4.32,20.7,80.1,1014.92,0,0,0,0,0.047874
2021/01/08 00:37:00.000,n,282,5.04,4.68,5.4,20.7,80,1014.92,0,0,0,0,0.043526
2021/01/08 00:38:00.003,n,256,3.96,3.6,4.32,20.7,79.9,1014.82,0,0,0,0,0.04528
2021/01/08 00:39:00.000,n,234,6.12,5.76,7.2,20.7,79.8,1014.82,0,0,0,0,0.04528
2021/01/08 00:40:00.000,n,228,3.6,3.24,3.96,20.7,80.4,1014.72,0,0,0,0,0.040016
2021/01/08 00:41:00.000,n,241,4.68,3.6,5.4,20.7,80.2,1014.72,0,0,0,0,0.042648
2021/01/08 00:42:00.009,n,251,4.68,3.96,5.76,20.7,79.8,1014.72,0,0,0,0,0.043526
2021/01/08 00:43:00.006,n,251,3.24,2.16,3.96,20.7,79.9,1014.72,0,0,0,0,0.044403
2021/01/08 00:44:00.004,n,291,0.36,0.36,0.36,20.7,79.8,1014.62,0,0,0,0,0.046158
2021/01/08 00:45:00.002,n,123,1.8,0.72,3.24,20.7,79.6,1014.62,0,0,0,0,0.049591
2021/01/08 00:46:00.000,n,148,5.04,3.6,6.48,20.7,79.4,1014.62,0,0,0,0,0.048752
2021/01/08 00:47:00.000,n,164,4.68,3.96,5.4,20.7,79.3,1014.52,0,0,0,0,0.043526
2021/01/08 00:48:00.000,n,197,1.8,0.72,2.52,20.7,79.4,1014.52,0,0,0,0,0.04528
2021/01/08 00:49:00.000,n,189,4.32,3.96,5.04,20.8,79.2,1014.52,0,0,0,0,0.051384
2021/01/08 00:50:00.005,n,198,5.76,4.68,6.48,20.8,79.3,1014.42,0,0,0,0,0.042648
2021/01/08 00:51:00.002,n,176,10.8,10.08,11.16,20.8,79.2,1014.42,0,0,0,0,0.046158
2021/01/08 00:52:00.000,n,230,2.88,2.52,3.24,20.9,79.2,1014.42,0,0,0,0,0.048752
2021/01/08 00:53:00.013,n,163,3.6,2.88,4.32,20.9,79.1,1014.52,0,0,0,0,0.044403
2021/01/08 00:54:00.011,n,242,2.88,2.16,3.96,20.9,79,1014.42,0,0,0,0,0.046158
2021/01/08 00:55:00.000,n,231,5.04,3.6,7.56,20.9,78.9,1014.42,0,0,0,0,0.051384
2021/01/08 00:56:00.000,n,246,2.52,1.8,3.24,20.9,78.9,1014.42,0,0,0,0,0.053101
2021/01/08 00:57:00.002,n,185,1.44,0.72,2.16,21,78.6,1014.42,0,0,0,0,0.052223
2021/01/08 00:58:00.000,n,179,7.2,6.12,8.64,20.9,78.3,1014.42,0,0,0,0,0.051384
2021/01/08 00:59:00.000,n,223,2.16,2.16,2.52,20.9,78.3,1014.42,0,0,0,0,0.051384
2021/01/08 01:00:00.009,n,239,1.44,0.72,2.52,20.9,78.1,1014.32,0,0,0,0,0.051384
2021/01/08 01:01:00.007,n,259,4.68,4.32,4.68,21,78.2,1014.42,0,0,0,0,0.051384
2021/01/08 01:02:00.004,n,227,0.72,0.36,1.08,21,78,1014.42,0,0,0,0,0.048752
2021/01/08 01:03:00.001,n,247,2.16,1.44,2.88,21,77.9,1014.42,0,0,0,0,0.053101
2021/01/08 01:04:00.000,n,241,3.24,2.52,4.32,21,77.8,1014.42,0,0,0,0,0.054817
2021/01/08 01:05:00.000,n,211,1.8,1.44,2.52,21,78.1,1014.42,0,0,0,0,0.053978
2021/01/08 01:06:00.000,n,219,3.6,2.88,4.32,21,77.8,1014.42,0,0,0,0,0.025253
2021/01/08 01:07:00.000,n,241,5.4,5.04,6.48,21,77.4,1014.42,0,0,0,0,0.030479
2021/01/08 01:08:00.000,n,228,2.52,2.52,2.88,21,77.5,1014.42,0,0,0,0,0.025253
2021/01/08 01:09:00.000,n,253,5.04,4.68,6.12,21,77.3,1014.42,0,0,0,0,0.025253
2021/01/08 01:10:00.009,n,245,1.8,0.72,2.52,21,77.3,1014.42,0,0,0,0,0.029602
2021/01/08 01:11:00.005,n,337,1.44,1.08,2.16,21.1,77.4,1014.32,0,0,0,0,0.030479
2021/01/08 01:12:00.003,n,170,3.24,2.16,3.6,21.1,77.3,1014.32,0,0,0,0,0.028725
2021/01/08 01:13:00.000,n,205,3.24,2.88,3.6,21.1,77,1014.32,0,0,0,0,0.030479
2021/01/08 01:14:00.000,n,246,3.6,3.24,3.96,21.1,76.9,1014.32,0,0,0,0,0.031357
2021/01/08 01:15:00.000,n,280,2.16,1.44,2.52,21.2,77.5,1014.32,0,0,0,0,0.028725
2021/01/08 01:16:00.000,n,179,6.48,5.76,7.56,21.2,76.6,1014.32,0,0,0,0,0.030479
2021/01/08 01:17:00.004,n,175,7.2,6.12,8.28,21.2,76.4,1014.32,0,0,0,0,0.033073
2021/01/08 01:18:00.001,n,165,8.28,6.48,10.08,21.2,76.3,1014.32,0,0,0,0,0.033951
2021/01/08 01:19:00.000,n,193,6.48,5.76,7.2,21.2,76.4,1014.32,0,0,0,0,0.031357
2021/01/08 01:20:00.012,n,171,4.32,3.96,4.32,21.2,76.3,1014.32,0,0,0,0,0.034866
2021/01/08 01:21:00.009,n,163,5.4,4.68,5.76,21.2,76.3,1014.32,0,0,0,0,0.033951
2021/01/08 01:22:00.000,n,225,4.68,3.24,5.4,21.2,76.2,1014.22,0,0,0,0,0.034866
2021/01/08 01:23:00.003,n,171,3.96,3.6,5.04,21.2,76.3,1014.22,0,0,0,0,0.031357
2021/01/08 01:24:00.000,n,155,3.6,3.24,3.96,21.2,76.2,1014.22,0,0,0,0,0.030479
2021/01/08 01:25:00.000,n,192,5.76,4.68,6.84,21.2,76.1,1014.12,0,0,0,0,0.032234
2021/01/08 01:26:00.000,n,189,3.6,2.52,3.96,21.3,76.2,1014.22,0,0,0,0,0.030479
2021/01/08 01:27:00.008,n,169,4.68,4.32,4.68,21.3,76.2,1014.22,0,0,0,0,0.030479
2021/01/08 01:28:00.005,n,169,6.48,5.04,7.2,21.3,76.3,1014.22,0,0,0,0,0.03746
2021/01/08 01:29:00.002,n,186,3.6,0.72,7.2,21.3,76.2,1014.22,0,0,0,0,0.033951
2021/01/08 01:30:00.016,n,200,5.04,4.32,5.76,21.3,76.2,1014.22,0,0,0,0,0.036583
2021/01/08 01:31:00.000,n,136,2.88,2.52,3.6,21.3,76.3,1014.22,0,0,0,0,0.036583
2021/01/08 01:32:00.000,n,215,4.32,3.6,5.04,21.3,76.1,1014.12,0,0,0,0,0.03746
2021/01/08 01:33:00.000,n,152,6.48,5.4,7.2,21.3,76,1014.12,0,0,0,0,0.033951
2021/01/08 01:34:00.005,n,160,10.08,9,11.52,21.4,75.6,1014.12,0,0,0,0,0.039177
2021/01/08 01:35:00.002,n,141,14.04,11.16,16.2,21.4,75.3,1014.02,0,0,0,0,0.029602
2021/01/08 01:36:00.000,n,141,12.24,10.8,14.4,21.4,74.8,1014.02,0,0,0,0,0.03746
2021/01/08 01:37:00.011,n,176,5.4,4.32,6.12,21.5,74.8,1014.02,0,0,0,0,0.03746
2021/01/08 01:38:00.008,n,149,11.52,10.440002,12.96,21.6,74,1013.92,0,0,0,0,0.039177
2021/01/08 01:39:00.005,n,134,8.64,6.48,10.440002,21.6,73.9,1014.02,0,0,0,0,0.040054
2021/01/08 01:40:00.000,n,158,6.48,4.32,8.28,21.7,73.7,1014.02,0,0,0,0,0.030479
2021/01/08 01:41:00.000,n,147,10.08,5.76,13.32,21.7,72.9,1014.02,0,0,0,0,0.034866
2021/01/08 01:42:00.000,n,150,29.16,24.84,32.760002,21.7,72,1014.02,0,0,0,0,0.0383
2021/01/08 01:43:00.000,n,276,2.16,1.08,5.76,21.8,71.6,1014.12,0,0,0,0,0.036583
2021/01/08 01:44:00.008,n,155,10.440002,8.28,12.96,21.9,71.4,1014.12,0,0,0,0,0.03746
2021/01/08 01:45:00.006,n,145,8.28,7.92,8.64,22,71.3,1014.12,0,0,0,0,0.034866
2021/01/08 01:46:00.003,n,137,10.08,8.64,11.88,22,70.8,1014.12,0,0,0,0,0.035706
2021/01/08 01:47:00.001,n,150,14.4,12.6,15.84,22,70.3,1014.02,0,0,0,0,0.040054
2021/01/08 01:48:00.015,n,158,10.08,7.56,11.16,22,70.3,1014.02,0,0,0,0,0.034866
2021/01/08 01:49:00.000,n,200,5.76,3.6,7.92,22.1,70.2,1014.02,0,0,0,0,0.039177
2021/01/08 01:50:00.000,n,147,14.4,10.8,18,22.1,70.2,1013.92,0,0,0,0,0.032234
2021/01/08 01:51:00.000,n,165,11.16,7.56,12.6,22.1,69.9,1013.82,0,0,0,0,0.040054
2021/01/08 01:52:00.005,n,174,6.12,2.52,9,22.1,69.8,1013.82,0,0,0,0,0.035706
2021/01/08 01:53:00.002,n,90,5.4,3.24,9.72,22.1,69.8,1013.82,0,0,0,0,0.03746
2021/01/08 01:54:00.000,n,88,7.56,5.04,9,22.1,69.7,1013.72,0,0,0,0,0.0383
2021/01/08 01:55:00.000,n,150,14.76,11.88,16.919998,22.1,69.6,1013.72,0,0,0,0,0.033951
2021/01/08 01:56:00.011,n,129,12.6,11.88,13.68,22.1,69.4,1013.72,0,0,0,0,0.03746
2021/01/08 01:57:00.008,n,63,3.6,2.16,4.68,22.1,69.7,1013.72,0,0,0,0,0.03746
2021/01/08 01:58:00.000,n,135,7.2,5.4,9,22.1,69.4,1013.72,0,0,0,0,0.040054
2021/01/08 01:59:00.001,n,115,11.52,7.2,15.84,22.1,69.4,1013.72,0,0,0,0,0.0383
2021/01/08 02:00:00.000,n,101,11.52,9.72,14.04,22.1,69.2,1013.72,0,0,0,0,0.040932
2021/01/08 02:01:00.000,n,130,6.12,5.04,7.56,22.1,69.1,1013.72,0,0,0,0,0.033073
2021/01/08 02:02:00.000,n,153,7.56,6.12,9,22.1,68.9,1013.72,0,0,0,0,0.040932
2021/01/08 02:03:00.007,n,131,11.88,10.440002,14.76,22.1,68.9,1013.62,0,0,0,0,0.040054
2021/01/08 02:04:00.005,n,123,13.32,3.24,20.880002,22.1,68.6,1013.62,0,0,0,0,0.035706
2021/01/08 02:05:00.002,n,126,15.84,14.04,19.08,22.1,68.4,1013.62,0,0,0,0,0.04528
2021/01/08 02:06:00.015,n,175,24.119998,21.599998,26.64,22.1,68.1,1013.62,0,0,0,0,0.0383
2021/01/08 02:07:00.000,n,143,14.76,12.96,16.2,22.1,68,1013.62,0,0,0,0,0.040932
2021/01/08 02:08:00.000,n,116,13.68,9.36,18,22.1,68,1013.62,0,0,0,0,0.039177
2021/01/08 02:09:00.000,n,198,5.76,5.04,6.84,22.1,68.1,1013.62,0,0,0,0,0.03746
2021/01/08 02:10:00.004,n,148,12.96,11.52,14.4,22.1,67.9,1013.62,0,0,0,0,0.040932
2021/01/08 02:11:00.001,n,137,15.84,15.48,16.919998,22.1,67.6,1013.52,0,0,0,0,0.040054
2021/01/08 02:12:00.000,n,143,6.84,4.68,7.92,22.1,67.7,1013.52,0,0,0,0,0.040932
2021/01/08 02:13:00.011,n,131,12.6,10.440002,13.68,22.1,67.6,1013.52,0,0,0,0,0.039177
2021/01/08 02:14:00.008,n,108,5.4,4.68,6.48,22.1,67.5,1013.52,0,0,0,0,0.040932
2021/01/08 02:15:00.006,n,132,8.64,5.4,12.24,22.1,67.6,1013.52,0,0,0,0,0.0383
2021/01/08 02:16:00.000,n,147,20.16,19.44,20.880002,22.1,67.2,1013.42,0,0,0,0,0.039177
2021/01/08 02:17:00.000,n,152,19.8,16.2,21.599998,22.1,67.3,1013.42,0,0,0,0,0.040932
2021/01/08 02:18:00.000,n,144,14.04,11.88,15.48,22.1,66.9,1013.42,0,0,0,0,0.041809
2021/01/08 02:19:00.000,n,154,4.32,2.16,5.4,22.1,67.1,1013.62,0,0,0,0,0.041809
2021/01/08 02:20:00.007,n,149,12.24,10.8,15.12,22.1,67,1013.62,0,0,0,0,0.036583
2021/01/08 02:21:00.005,n,147,11.52,9.36,13.32,22.1,66.800004,1013.62,0,0,0,0,0.034866
2021/01/08 02:22:00.002,n,144,11.52,10.8,12.24,22.1,67,1013.62,0,0,0,0,0.040054
2021/01/08 02:23:00.015,n,152,5.4,1.08,8.64,22.1,67.2,1013.72,0,0,0,0,0.0383
2021/01/08 02:24:00.012,n,161,14.04,10.08,18,22.1,67.1,1013.62,0,0,0,0,0.03746
2021/01/08 02:25:00.000,n,173,6.12,5.4,7.2,22.1,67.2,1013.72,0,0,0,0,0.0383
2021/01/08 02:26:00.000,n,206,3.6,1.8,4.68,22.1,67.2,1013.72,0,0,0,0,0.035706
2021/01/08 02:27:00.004,n,185,6.84,5.04,9,22.1,67.1,1013.72,0,0,0,0,0.043526
2021/01/08 02:28:00.002,n,123,7.92,6.48,9,22.1,67.1,1013.82,0,0,0,0,0.03746
2021/01/08 02:29:00.000,n,137,9.36,8.28,11.88,22.1,67.1,1013.82,0,0,0,0,0.036583
2021/01/08 02:30:00.000,n,24,1.08,0.72,1.8,22.1,67.4,1013.82,0,0,0,0,0.03746
2021/01/08 02:31:00.010,n,149,11.88,9.36,13.32,22.1,67.3,1013.82,0,0,0,0,0.0383
2021/01/08 02:32:00.008,n,158,12.6,11.16,14.4,22.1,67.2,1013.82,0,0,0,0,0.040932
2021/01/08 02:33:00.004,n,150,6.84,6.12,7.56,22.1,67.2,1013.82,0,0,0,0,0.040932
2021/01/08 02:34:00.002,n,159,7.56,5.76,9.72,22.1,67,1013.82,0,0,0,0,0.0383
2021/01/08 02:35:00.000,n,176,5.76,4.68,6.48,22.1,67.2,1013.82,0,0,0,0,0.039177
2021/01/08 02:36:00.000,n,115,3.24,2.16,4.32,22.1,67.3,1013.82,0,0,0,0,0.035706
2021/01/08 02:37:00.000,n,139,3.24,1.44,4.32,22.1,67.3,1013.72,0,0,0,0,0.044403
2021/01/08 02:38:00.006,n,201,12.6,11.88,14.4,22.1,67.3,1013.72,0,0,0,0,0.040054
2021/01/08 02:39:00.003,n,146,12.6,7.2,14.76,22.1,67.3,1013.72,0,0,0,0,0.041809
2021/01/08 02:40:00.000,n,100,5.04,1.44,9,22.1,67.2,1013.62,0,0,0,0,0.034866
2021/01/08 02:41:00.013,n,137,10.08,7.2,14.04,22.1,67.1,1013.62,0,0,0,0,0.040932
2021/01/08 02:42:00.010,n,173,8.64,7.2,11.52,22.1,67.2,1013.72,0,0,0,0,0.043526
2021/01/08 02:43:00.000,n,135,7.56,6.84,8.64,22.1,67.1,1013.72,0,0,0,0,0.039177
2021/01/08 02:44:00.000,n,135,8.64,7.56,9.36,22.1,67,1013.72,0,0,0,0,0.043526
2021/01/08 02:45:00.000,n,157,2.52,1.8,3.24,22.1,67,1013.72,0,0,0,0,0.040054
2021/01/08 02:46:00.000,n,156,6.48,2.16,9.72,22.1,67.2,1013.72,0,0,0,0,0.040054
2021/01/08 02:47:00.000,n,169,12.96,11.88,13.68,22.1,67,1013.62,0,0,0,0,0.040932
2021/01/08 02:48:00.008,n,141,6.12,4.68,8.28,22.1,67.1,1013.62,0,0,0,0,0.040054
2021/01/08 02:49:00.006,n,160,15.12,12.6,16.919998,22.1,66.6,1013.62,0,0,0,0,0.041809
2021/01/08 02:50:00.002,n,141,7.2,6.84,7.92,22.1,66.6,1013.62,0,0,0,0,0.042648
2021/01/08 02:51:00.000,n,155,10.8,5.76,14.76,22.1,66.6,1013.62,0,0,0,0,0.04528
2021/01/08 02:52:00.000,n,140,12.24,10.440002,15.12,22.2,66.4,1013.62,0,0,0,0,0.039177
2021/01/08 02:53:00.000,n,132,12.24,11.16,13.68,22.2,66.300004,1013.62,0,0,0,0,0.041809
2021/01/08 02:54:00.000,n,174,7.56,6.48,10.08,22.2,66.4,1013.62,0,0,0,0,0.04528
2021/01/08 02:55:00.005,n,139,3.24,1.08,5.04,22.2,66.5,1013.72,0,0,0,0,0.043526
2021/01/08 02:56:00.003,n,155,15.84,15.12,16.919998,22.2,66.5,1013.72,0,0,0,0,0.041809
2021/01/08 02:57:00.000,n,133,3.96,1.08,7.92,22.2,66.6,1013.72,0,0,0,0,0.042648
2021/01/08 02:58:00.000,n,191,7.56,3.6,10.8,22.2,66.5,1013.72,0,0,0,0,0.043526
2021/01/08 02:59:00.009,n,182,14.76,12.96,15.84,22.2,66.4,1013.82,0,0,0,0,0.044403
2021/01/08 03:00:00.007,n,212,12.96,9,15.48,22.2,66.300004,1013.82,0,0,0,0,0.04528
2021/01/08 03:01:00.000,n,158,19.08,17.64,21.96,22.2,66.4,1013.82,0,0,0,0,0.04528
2021/01/08 03:02:00.000,n,117,8.28,2.16,13.68,22.2,66.4,1013.82,0,0,0,0,0.047874
2021/01/08 03:03:00.000,n,158,7.92,5.76,9.36,22.2,66.4,1013.92,0,0,0,0,0.047874
2021/01/08 03:04:00.000,n,141,11.16,10.08,13.32,22.2,66.4,1013.82,0,0,0,0,0.04528
2021/01/08 03:05:00.008,n,142,5.4,4.32,6.48,22.2,66.4,1013.92,0,0,0,0,0.042648
2021/01/08 03:06:00.005,n,161,15.48,12.24,18,22.2,66.199996,1013.82,0,0,0,0,0.042648
2021/01/08 03:07:00.002,n,136,12.96,10.8,17.28,22.2,66.199996,1013.92,0,0,0,0,0.042648
2021/01/08 03:08:00.000,n,144,5.76,5.04,6.48,22.2,66.199996,1013.92,0,0,0,0,0.042648
2021/01/08 03:09:00.011,n,168,10.440002,10.08,11.16,22.2,66.199996,1013.92,0,0,0,0,0.048752
2021/01/08 03:10:00.000,n,130,7.56,5.76,10.08,22.2,66.300004,1013.82,0,0,0,0,0.044403
2021/01/08 03:11:00.000,n,170,4.68,3.24,5.4,22.2,66.1,1013.92,0,0,0,0,0.043526
2021/01/08 03:12:00.003,n,133,7.56,3.6,10.8,22.2,66.1,1013.82,0,0,0,0,0.041809
2021/01/08 03:13:00.000,n,125,12.96,7.92,15.84,22.2,66.1,1013.82,0,0,0,0,0.044403
2021/01/08 03:14:00.000,n,169,9.72,7.92,11.88,22.2,66,1013.82,0,0,0,0,0.043526
2021/01/08 03:15:00.000,n,130,12.6,8.28,14.76,22.2,65.9,1013.82,0,0,0,0,0.040932
2021/01/08 03:16:00.009,n,121,16.56,10.440002,22.319998,22.2,65.699996,1013.62,0,0,0,0,0.043526
2021/01/08 03:17:00.005,n,123,7.56,6.48,8.28,22.2,65.800004,1013.82,0,0,0,0,0.042648
2021/01/08 03:18:00.003,n,146,11.52,8.28,14.04,22.2,65.800004,1013.82,0,0,0,0,0.04528
2021/01/08 03:19:00.000,n,145,7.56,6.84,8.64,22.2,65.9,1013.82,0,0,0,0,0.043526
2021/01/08 03:20:00.000,n,178,6.48,5.76,7.92,22.2,66.1,1013.92,0,0,0,0,0.044403
2021/01/08 03:21:00.000,n,138,9.72,8.28,11.16,22.2,65.9,1013.92,0,0,0,0,0.044403
2021/01/08 03:22:00.000,n,106,6.12,4.32,7.92,22.2,65.9,1013.92,0,0,0,0,0.046158
2021/01/08 03:23:00.005,n,163,18.72,14.04,21.96,22.2,65.300004,1013.82,0,0,0,0,0.046158
2021/01/08 03:24:00.003,n,164,11.88,10.8,12.6,22.2,65.300004,1013.92,0,0,0,0,0.047035
2021/01/08 03:25:00.000,n,127,9.36,7.92,10.440002,22.2,65.199996,1014.02,0,0,0,0,0.044403
2021/01/08 03:26:00.013,n,231,6.84,6.12,8.28,22.2,65.300004,1014.02,0,0,0,0,0.047035
2021/01/08 03:27:00.011,n,136,8.28,5.04,10.440002,22.3,65.199996,1014.02,0,0,0,0,0.047035
2021/01/08 03:28:00.000,n,208,6.84,3.96,9.72,22.3,65,1014.02,0,0,0,0,0.047874
2021/01/08 03:29:00.000,n,150,18.359998,17.64,19.44,22.3,65.1,1014.02,0,0,0,0,0.04528
2021/01/08 03:30:00.004,n,156,13.68,11.52,15.12,22.3,65.1,1014.12,0,0,0,0,0.04528
2021/01/08 03:31:00.001,n,130,12.96,9.72,17.28,22.3,65.1,1014.12,0,0,0,0,0.044403
2021/01/08 03:32:00.000,n,154,21.599998,18.359998,23.4,22.3,64.699996,1014.02,0,0,0,0,0.047035
2021/01/08 03:33:00.000,n,149,10.08,3.6,14.76,22.3,64.800004,1014.02,0,0,0,0,0.044403
2021/01/08 03:34:00.009,n,151,9.36,7.2,10.08,22.3,64.9,1014.12,0,0,0,0,0.044403
2021/01/08 03:35:00.006,n,131,11.16,9,14.04,22.3,64.699996,1014.02,0,0,0,0,0.046158
2021/01/08 03:36:00.004,n,203,3.96,3.24,4.32,22.3,64.300004,1014.02,0,0,0,0,0.023499
2021/01/08 03:37:00.000,n,157,23.04,22.319998,23.759998,22.3,64.199996,1014.02,0,0,0,0,0.029602
2021/01/08 03:38:00.000,n,114,11.88,10.08,12.96,22.3,64.300004,1014.02,0,0,0,0,0.028725
2021/01/08 03:39:00.000,n,193,3.96,2.88,5.04,22.3,64.199996,1014.12,0,0,0,0,0.028725
2021/01/08 03:40:00.006,n,150,16.919998,15.12,19.08,22.3,64.1,1013.92,0,0,0,0,0.027847
2021/01/08 03:41:00.003,n,178,13.68,12.96,14.4,22.3,63.9,1014.02,0,0,0,0,0.030479
2021/01/08 03:42:00.000,n,170,21.599998,18.359998,25.199998,22.3,63.8,1013.92,0,0,0,0,0.031357
2021/01/08 03:43:00.000,n,172,11.16,9.72,12.96,22.3,64,1014.02,0,0,0,0,0.031357
2021/01/08 03:44:00.009,n,177,4.68,1.44,8.28,22.4,63.8,1014.02,0,0,0,0,0.032196
2021/01/08 03:45:00.006,n,145,13.32,11.16,15.84,22.4,63.5,1013.92,0,0,0,0,0.02697
2021/01/08 03:46:00.000,n,133,17.28,14.76,21.599998,22.4,63.5,1013.92,0,0,0,0,0.029602
2021/01/08 03:47:00.000,n,138,9.72,3.6,12.96,22.4,63.5,1013.92,0,0,0,0,0.021744
2021/01/08 03:48:00.000,n,168,20.16,17.64,23.759998,22.4,63.1,1013.92,0,0,0,0,0.02697
2021/01/08 03:49:00.000,n,160,9,6.48,11.52,22.4,63.2,1013.92,0,0,0,0,0.030479
2021/01/08 03:50:00.000,n,166,18.359998,14.4,20.880002,22.4,62.8,1013.92,0,0,0,0,0.032196
2021/01/08 03:51:00.006,n,141,8.64,7.56,10.08,22.4,63,1013.92,0,0,0,0,0.023499
2021/01/08 03:52:00.004,n,99,11.16,8.64,15.48,22.4,63,1014.02,0,0,0,0,0.025253
2021/01/08 03:53:00.001,n,139,17.28,15.12,18.72,22.4,62.9,1013.92,0,0,0,0,0.027847
2021/01/08 03:54:00.015,n,157,18.359998,15.48,19.8,22.4,62.8,1014.02,0,0,0,0,0.02697
2021/01/08 03:55:00.000,n,96,3.96,2.52,6.48,22.4,62.9,1014.12,0,0,0,0,0.028725
2021/01/08 03:56:00.000,n,130,18.359998,15.48,20.880002,22.4,62.8,1014.02,0,0,0,0,0.02697
2021/01/08 03:57:00.000,n,131,16.2,14.76,20.16,22.4,62.4,1014.02,0,0,0,0,0.02697
2021/01/08 03:58:00.002,n,164,11.16,4.32,12.6,22.4,62.8,1014.12,0,0,0,0,0.029602
2021/01/08 03:59:00.000,n,355,4.32,1.8,7.56,22.4,62.8,1014.02,0,0,0,0,0.027847
2021/01/08 04:00:00.000,n,151,19.08,14.76,20.880002,22.4,62.8,1014.02,0,0,0,0,0.02697
2021/01/08 04:01:00.009,n,132,24.119998,23.4,25.56,22.4,62.5,1014.02,0,0,0,0,0.029602
2021/01/08 04:02:00.006,n,118,5.76,1.44,7.2,22.4,62.5,1014.12,0,0,0,0,0.025253
2021/01/08 04:03:00.003,n,140,18,16.56,19.08,22.4,62.5,1014.12,0,0,0,0,0.025253
2021/01/08 04:04:00.000,n,161,9,7.2,10.08,22.4,62.5,1014.12,0,0,0,0,0.029602
2021/01/08 04:05:00.000,n,158,14.4,12.96,15.84,22.4,62.6,1014.12,0,0,0,0,0.02697
2021/01/08 04:06:00.000,n,173,17.64,14.76,20.519998,22.4,62.3,1014.12,0,0,0,0,0.029602
2021/01/08 04:07:00.007,n,112,7.92,7.56,8.28,22.4,62.4,1014.12,0,0,0,0,0.028725
2021/01/08 04:08:00.003,n,188,5.04,3.96,5.76,22.4,62.5,1014.22,0,0,0,0,0.025253
2021/01/08 04:09:00.001,n,174,6.12,4.68,7.2,22.4,62.4,1014.22,0,0,0,0,0.028725
2021/01/08 04:10:00.000,n,171,12.24,6.84,14.04,22.4,62.6,1014.22,0,0,0,0,0.023499
2021/01/08 04:11:00.011,n,193,8.64,7.2,9.72,22.4,62.7,1014.22,0,0,0,0,0.029602
2021/01/08 04:12:00.008,n,122,9.72,9,10.440002,22.4,62.7,1014.22,0,0,0,0,0.024376
2021/01/08 04:13:00.000,n,152,8.64,4.32,12.24,22.4,62.4,1014.22,0,0,0,0,0.026131
2021/01/08 04:14:00.002,n,173,8.28,6.84,9.72,22.4,62.4,1014.22,0,0,0,0,0.02697
2021/01/08 04:15:00.000,n,152,4.32,1.08,6.12,22.4,62.4,1014.32,0,0,0,0,0.022621
2021/01/08 04:16:00.000,n,148,14.76,11.16,19.08,22.4,62.4,1014.32,0,0,0,0,0.027847
2021/01/08 04:17:00.000,n,135,10.08,9.36,12.6,22.4,62.3,1014.32,0,0,0,0,0.026131
2021/01/08 04:18:00.007,n,130,8.64,7.56,11.88,22.4,62.4,1014.22,0,0,0,0,0.022621
2021/01/08 04:19:00.004,n,131,16.56,15.48,18,22.4,62,1014.22,0,0,0,0,0.028725
2021/01/08 04:20:00.001,n,121,7.92,6.84,9.36,22.4,62,1014.22,0,0,0,0,0.027847
2021/01/08 04:21:00.014,n,158,14.04,11.88,15.48,22.4,62,1014.22,0,0,0,0,0.02697
2021/01/08 04:22:00.000,n,98,6.84,1.08,11.16,22.4,61.8,1014.22,0,0,0,0,0.02697
2021/01/08 04:23:00.000,n,164,7.92,1.44,10.440002,22.5,61.9,1014.12,0,0,0,0,0.024376
2021/01/08 04:24:00.000,n,166,5.04,3.24,6.84,22.5,62,1014.12,0,0,0,0,0.027847
2021/01/08 04:25:00.002,n,146,13.68,11.88,15.84,22.4,62,1014.12,0,0,0,0,0.02697
2021/01/08 04:26:00.000,n,123,3.96,2.16,6.12,22.4,62.3,1014.22,0,0,0,0,0.026131
2021/01/08 04:27:00.000,n,192,9.36,9,10.440002,22.4,61.8,1014.22,0,0,0,0,0.028725
2021/01/08 04:28:00.010,n,336,4.68,3.6,5.4,22.4,61.8,1014.22,0,0,0,0,0.030479
2021/01/08 04:29:00.007,n,135,8.28,2.88,11.16,22.4,61.7,1014.22,0,0,0,0,0.027847
2021/01/08 04:30:00.006,n,278,5.4,2.88,16.2,22.4,61.4,1014.22,0,0,0,0,0.028725
2021/01/08 04:31:00.000,n,132,5.4,2.16,9.72,22.4,61.4,1014.22,0,0,0,0,0.029602
2021/01/08 04:32:00.000,n,140,20.519998,19.8,21.24,22.5,61.3,1014.32,0,0,0,0,0.032196
2021/01/08 04:33:00.000,n,139,6.84,2.52,9.72,22.4,61.4,1014.32,0,0,0,0,0.031357
2021/01/08 04:34:00.000,n,156,9.36,8.28,10.440002,22.4,61.3,1014.32,0,0,0,0,0.02697
2021/01/08 04:35:00.007,n,161,8.28,7.56,9.36,22.4,61.5,1014.32,0,0,0,0,0.033951
2021/01/08 04:36:00.005,n,151,19.44,18,22.68,22.4,61.2,1014.22,0,0,0,0,0.034828
2021/01/08 04:37:00.001,n,167,13.32,10.440002,15.84,22.4,61.2,1014.22,0,0,0,0,0.033951
2021/01/08 04:38:00.000,n,105,6.84,6.12,7.56,22.4,61.3,1014.22,0,0,0,0,0.041771
2021/01/08 04:39:00.011,n,147,18.72,18,19.8,22.4,61.1,1014.22,0,0,0,0,0.04612
2021/01/08 04:40:00.000,n,125,19.44,15.12,20.880002,22.4,61.1,1014.22,0,0,0,0,0.048714
2021/01/08 04:41:00.000,n,148,16.2,14.04,17.64,22.5,60.8,1014.22,0,0,0,0,0.058289
2021/01/08 04:42:00.002,n,157,9.36,6.48,12.24,22.5,60.9,1014.22,0,0,0,0,0.070457
2021/01/08 04:43:00.000,n,184,5.76,4.32,6.84,22.5,60.8,1014.22,0,0,0,0,0.082664
2021/01/08 04:44:00.000,n,150,21.96,20.880002,23.04,22.5,60.3,1014.22,0,0,0,0,0.102692
2021/01/08 04:45:00.009,n,130,9,7.56,10.440002,22.5,60.5,1014.22,0,0,0,0,0.119209
2021/01/08 04:46:00.007,n,141,9,2.16,12.24,22.5,60.6,1014.32,0,0,0,0,0.140076
2021/01/08 04:47:00.004,n,148,11.88,10.8,13.68,22.5,60.6,1014.32,0,0,0,0,0.170517
2021/01/08 04:48:00.002,n,187,9.72,7.92,11.52,22.5,60.5,1014.32,0,0,0,0,0.207024
2021/01/08 04:49:00.000,n,166,10.08,6.84,11.88,22.5,60.4,1014.32,0,0,0,0,0.25135